Hourly Weather Almaly

Today, 4 March, Thursday

Time Temperature Precipitation Wind Pressure Humidity
00:00 +3°C° 0.1 mm 2 mps 712 mmHg 94%
01:00 +3°C° 0.1 mm 2 mps 711 mmHg 93%
02:00 +3°C° 0.1 mm 2 mps 711 mmHg 92%
03:00 +3°C° 0.1 mm 2 mps 711 mmHg 92%
04:00 +3°C° 0.1 mm 2 mps 711 mmHg 92%
05:00 +4°C° 0 mm 1 mps 710 mmHg 91%
06:00 +4°C° 0.1 mm 1 mps 710 mmHg 91%
07:00 +4°C° 0.1 mm 2 mps 710 mmHg 92%
08:00 +4°C° 0.1 mm 2 mps 710 mmHg 92%
09:00 +4°C° 0.1 mm 2 mps 710 mmHg 91%
10:00 +5°C° 0.1 mm 2 mps 710 mmHg 91%
11:00 +4°C° 0 mm 3 mps 709 mmHg 89%
12:00 +4°C° 0.8 mm 3 mps 709 mmHg 92%
13:00 +4°C° 0.8 mm 3 mps 709 mmHg 95%
14:00 +3°C° 0.8 mm 4 mps 709 mmHg 97%
15:00 +4°C° 0.8 mm 4 mps 709 mmHg 97%
16:00 +4°C° 0.8 mm 3 mps 709 mmHg 97%
17:00 +4°C° 0.8 mm 3 mps 709 mmHg 96%
18:00 +4°C° 1.8 mm 4 mps 709 mmHg 97%
19:00 +4°C° 1.8 mm 4 mps 709 mmHg 97%
20:00 +3°C° 1.8 mm 5 mps 710 mmHg 98%
21:00 +1°C° 3.2 mm 5 mps 711 mmHg 98%
22:00 0°C° 3.2 mm 5 mps 712 mmHg 98%
23:00 -1°C° 3.2 mm 5 mps 713 mmHg 98%

Tomorrow, 5 March, Friday

Time Temperature Precipitation Wind Pressure Humidity
00:00 -1°C° 0.8 mm 5 mps 714 mmHg 97%
01:00 -1°C° 0.8 mm 5 mps 715 mmHg 96%
02:00 -1°C° 0.8 mm 5 mps 715 mmHg 95%
03:00 -2°C° 0.2 mm 4 mps 716 mmHg 95%
04:00 -2°C° 0.2 mm 4 mps 717 mmHg 95%
05:00 -2°C° 0.2 mm 4 mps 718 mmHg 96%
06:00 -2°C° 0 mm 4 mps 719 mmHg 95%
07:00 -1°C° 0 mm 3 mps 719 mmHg 95%
08:00 -1°C° 0 mm 3 mps 719 mmHg 95%
09:00 -1°C° 0 mm 2 mps 719 mmHg 92%
10:00 +1°C° 0 mm 2 mps 719 mmHg 88%
11:00 +2°C° 0 mm 1 mps 719 mmHg 85%
12:00 +3°C° 0 mm 1 mps 719 mmHg 83%
13:00 +3°C° 0 mm 1 mps 718 mmHg 80%
14:00 +4°C° 0 mm 1 mps 717 mmHg 78%
15:00 +2°C° 0 mm 2 mps 717 mmHg 78%
16:00 +2°C° 0 mm 2 mps 716 mmHg 78%
17:00 +2°C° 0 mm 2 mps 716 mmHg 79%
18:00 0°C° 0 mm 3 mps 715 mmHg 81%
19:00 -1°C° 0 mm 3 mps 715 mmHg 83%
20:00 -2°C° 0 mm 3 mps 714 mmHg 86%
21:00 -2°C° 0 mm 3 mps 714 mmHg 85%
22:00 -2°C° 0 mm 3 mps 714 mmHg 84%
23:00 -2°C° 0 mm 3 mps 713 mmHg 83%

Day after tomorrow, 6 March, Saturday

Time Temperature Precipitation Wind Pressure Humidity
00:00 -2°C° 0 mm 3 mps 713 mmHg 76%
01:00 -1°C° 0 mm 2 mps 712 mmHg 70%
02:00 -1°C° 0 mm 2 mps 711 mmHg 63%
03:00 +1°C° 0 mm 2 mps 711 mmHg 59%
04:00 +1°C° 0 mm 2 mps 710 mmHg 54%
05:00 +1°C° 0 mm 2 mps 710 mmHg 50%
06:00 +2°C° 0 mm 2 mps 710 mmHg 51%
07:00 +3°C° 0 mm 2 mps 709 mmHg 51%
08:00 +3°C° 0 mm 2 mps 709 mmHg 52%
09:00 +4°C° 0 mm 2 mps 708 mmHg 58%
10:00 +5°C° 0 mm 2 mps 708 mmHg 64%
11:00 +6°C° 0 mm 2 mps 707 mmHg 70%
12:00 +6°C° 0 mm 2 mps 707 mmHg 72%
13:00 +6°C° 0 mm 2 mps 707 mmHg 75%
14:00 +6°C° 0 mm 2 mps 706 mmHg 77%
15:00 +6°C° 0 mm 2 mps 707 mmHg 77%
16:00 +6°C° 0 mm 2 mps 707 mmHg 76%
17:00 +5°C° 0 mm 2 mps 707 mmHg 76%
18:00 +5°C° 0 mm 2 mps 708 mmHg 75%
19:00 +5°C° 0 mm 2 mps 708 mmHg 75%
20:00 +4°C° 0 mm 2 mps 708 mmHg 74%
21:00 +4°C° 0 mm 2 mps 708 mmHg 76%
22:00 +5°C° 0 mm 1 mps 709 mmHg 78%
23:00 +5°C° 0 mm 1 mps 709 mmHg 79%

7 March, Sunday

Time Temperature Precipitation Wind Pressure Humidity
00:00 +5°C° 0.1 mm 1 mps 709 mmHg 81%
01:00 +5°C° 0.1 mm 1 mps 709 mmHg 83%
02:00 +4°C° 0.1 mm 0 mps 709 mmHg 85%
03:00 +4°C° 0.2 mm 1 mps 709 mmHg 88%
04:00 +4°C° 0.2 mm 1 mps 710 mmHg 91%
05:00 +4°C° 0.2 mm 1 mps 710 mmHg 94%
06:00 +4°C° 0.5 mm 1 mps 710 mmHg 95%
07:00 +4°C° 0.5 mm 1 mps 710 mmHg 96%
08:00 +3°C° 0.5 mm 2 mps 711 mmHg 97%
09:00 +3°C° 0.5 mm 2 mps 711 mmHg 97%
10:00 +3°C° 0.5 mm 2 mps 711 mmHg 98%
11:00 +2°C° 0.5 mm 3 mps 711 mmHg 98%
12:00 +2°C° 0.4 mm 3 mps 711 mmHg 98%
13:00 +2°C° 0.4 mm 3 mps 711 mmHg 98%
14:00 +3°C° 0.4 mm 2 mps 710 mmHg 97%
15:00 +3°C° 0.1 mm 2 mps 710 mmHg 97%
16:00 +3°C° 0.1 mm 2 mps 710 mmHg 97%
17:00 +3°C° 0.1 mm 2 mps 710 mmHg 97%
18:00 +3°C° 0 mm 2 mps 710 mmHg 97%
19:00 +3°C° 0 mm 2 mps 710 mmHg 96%
20:00 +3°C° 0 mm 2 mps 710 mmHg 96%
21:00 +3°C° 0 mm 2 mps 710 mmHg 96%
22:00 +3°C° 0 mm 2 mps 710 mmHg 95%
23:00 +3°C° 0 mm 2 mps 710 mmHg 95%

8 March, Monday

Time Temperature Precipitation Wind Pressure Humidity
00:00 +2°C° 0 mm 2 mps 709 mmHg 94%
01:00 +2°C° 0 mm 2 mps 709 mmHg 93%
02:00 +2°C° 0 mm 2 mps 709 mmHg 93%
03:00 +2°C° 0 mm 2 mps 709 mmHg 91%
04:00 +2°C° 0 mm 2 mps 709 mmHg 89%
05:00 +2°C° 0 mm 2 mps 709 mmHg 88%
06:00 +3°C° 0 mm 2 mps 709 mmHg 86%
07:00 +3°C° 0 mm 2 mps 709 mmHg 85%
08:00 +3°C° 0 mm 3 mps 710 mmHg 84%
09:00 +4°C° 0 mm 4 mps 710 mmHg 84%
10:00 +5°C° 0 mm 5 mps 710 mmHg 83%
11:00 +5°C° 0 mm 6 mps 710 mmHg 83%
12:00 +6°C° 0 mm 7 mps 710 mmHg 79%
13:00 +6°C° 0 mm 8 mps 710 mmHg 76%
14:00 +7°C° 0 mm 9 mps 710 mmHg 72%
15:00 +7°C° 0.1 mm 8 mps 711 mmHg 74%
16:00 +8°C° 0.1 mm 7 mps 711 mmHg 76%
17:00 +7°C° 0.1 mm 6 mps 711 mmHg 78%
18:00 +7°C° 0.1 mm 5 mps 712 mmHg 80%
19:00 +6°C° 0.1 mm 4 mps 712 mmHg 82%
20:00 +5°C° 0.1 mm 3 mps 712 mmHg 84%
21:00 +5°C° 0 mm 3 mps 713 mmHg 85%
22:00 +5°C° 0 mm 2 mps 713 mmHg 85%
23:00 +5°C° 0 mm 1 mps 713 mmHg 86%

9 March, Tuesday

Time Temperature Precipitation Wind Pressure Humidity
00:00 +4°C° 0 mm 2 mps 713 mmHg 86%
01:00 +4°C° 0 mm 2 mps 713 mmHg 85%
02:00 +4°C° 0 mm 2 mps 713 mmHg 85%
03:00 +4°C° 0 mm 2 mps 712 mmHg 84%
04:00 +2°C° 0 mm 3 mps 712 mmHg 84%
05:00 +2°C° 0 mm 3 mps 711 mmHg 83%
06:00 +3°C° 0 mm 3 mps 711 mmHg 81%
07:00 +4°C° 0 mm 2 mps 711 mmHg 79%
08:00 +5°C° 0 mm 2 mps 711 mmHg 76%
09:00 +7°C° 0 mm 2 mps 710 mmHg 74%
10:00 +8°C° 0 mm 2 mps 710 mmHg 72%
11:00 +11°C° 0 mm 1 mps 710 mmHg 70%
12:00 +11°C° 0 mm 1 mps 709 mmHg 68%
13:00 +12°C° 0 mm 1 mps 709 mmHg 67%
14:00 +12°C° 0 mm 1 mps 708 mmHg 65%
15:00 +12°C° 0 mm 2 mps 708 mmHg 66%
16:00 +10°C° 0 mm 2 mps 707 mmHg 68%
17:00 +10°C° 0 mm 2 mps 707 mmHg 69%
18:00 +9°C° 0 mm 2 mps 707 mmHg 68%
19:00 +8°C° 0 mm 2 mps 707 mmHg 66%
20:00 +9°C° 0 mm 1 mps 706 mmHg 65%
21:00 +8°C° 0 mm 1 mps 706 mmHg 65%
22:00 +8°C° 0 mm 1 mps 706 mmHg 64%
23:00 +8°C° 0 mm 1 mps 706 mmHg 64%
Show more